Flag for Germany Weather past 2 weeks in Herford, North Rhine-Westphalia, Germany

Now
64 °F

Drizzle. Partly sunny.


Feels Like: 64 °F
Forecast: 59 / 75 °F
Wind: 7 mph from Northwest

Location: Bueckeburg

Current Time: Jul 30, 2014 at 9:25:35 AM

Latest Report: Jul 30, 2014 at 8:48 AM


Visibility: 5 mi

Pressure: 29.80 "Hg

Humidity: 94%

Dew point: 63 °F

Location of HerfordLocation

Historic Weather in Herford — Graph

°F

Herford temperature yesterday

Maximum temperature yesterday: 82 °F (at 5:59 PM)
Minimum temperature yesterday: 63 °F (at 3:20 AM)
Average temperature yesterday: 71 °F

Past Weeks' High & Low Weather Summary

 TemperatureHumidityPressure
High91 °F (Jul 19, 4:20 PM)100% (Jul 21, 7:20 AM)30.18 "Hg (Jul 21, 7:20 AM)
Low57 °F (Jul 16, 2:20 AM)28% (Jul 19, 4:20 PM)29.74 "Hg (Jul 29, 6:20 PM)
Average71 °F70%29.98 "Hg
* Reported Jul 15 7:20 AM — Jul 30 7:20 AM, Herford, Weather by CustomWeather, © 2014

Note: Actual official high and low records may vary slightly from our data, if they occured in-between our weather recording intervals... More about our weather records

Advertising

Herford weather history for previous 24 hours

 ConditionsComfort  
Time TempWeatherWind HumidityBarometerVisibility
7:20 AM
Jul 30
64 °FLight rain. Fog.5 mph94%29.80 "Hg3 mi
6:20 AM64 °FLight rain. Fog.5 mph94%29.77 "Hg3 mi
5:20 AM64 °FPassing clouds.5 mph94%29.77 "Hg4 mi
4:20 AM66 °FPassing clouds.6 mph94%29.77 "Hg4 mi
3:20 AM66 °FFog.6 mph94%29.77 "Hg3 mi
2:20 AM66 °FFog.7 mph100%29.77 "Hg2 mi
1:20 AM68 °FFog.2 mph94%29.77 "Hg1 mi
1:01 AM66 °FLight rain. Fog.3 mph100%29.77 "Hg1 mi
12:20 AM66 °FLight rain. Fog.3 mph100%29.80 "Hg2 mi
11:20 PM
Jul 29
66 °FSprinkles. Fog.No wind100%29.80 "Hg2 mi
10:20 PM66 °FRain showers. Fog.5 mph100%29.80 "Hg3 mi
9:20 PM66 °FThunderstorms. Broken clouds.2 mph94%29.80 "Hg4 mi
8:20 PM75 °FThunderstorms. Partly sunny.8 mph74%29.77 "HgN/A
7:52 PM77 °FThunderstorms. Partly sunny.7 mph65%29.77 "HgN/A
7:20 PM79 °FPartly sunny.7 mph58%29.74 "HgN/A
6:20 PM81 °FPartly sunny.6 mph54%29.74 "HgN/A
5:59 PM82 °FPartly sunny.8 mph51%29.77 "HgN/A
5:20 PM81 °FBroken clouds.6 mph54%29.77 "HgN/A
4:20 PM79 °FPartly sunny.7 mph54%29.77 "HgN/A
3:20 PM79 °FBroken clouds.7 mph58%29.80 "HgN/A
2:20 PM77 °FPartly sunny.3 mph61%29.80 "HgN/A
1:20 PM77 °FBroken clouds.3 mph61%29.83 "HgN/A
12:20 PM75 °FPartly sunny.7 mph65%29.83 "HgN/A
11:20 AM75 °FBroken clouds.7 mph69%29.83 "HgN/A
10:20 AM75 °FPartly sunny.7 mph69%29.86 "HgN/A
9:20 AM66 °FPartly sunny.2 mph88%29.83 "HgN/A
Weather by CustomWeather, © 2014

See weather overviewHow to use our weather pages